Location: Milton
(43.5183°N, 79.8775°W)
Time: 16:02:39
(UTC+00:00)

UNISAT 6 - Pass Details

Date: 20 March 2023
Orbit: 599 x 680 km, 97.7° (Epoch: 02 June)

Event Time Altitude Azimuth Distance (km) Brightness Sun altitude
Rises 08:34:59 0° 111° (ESE) 2,873 ? -29.8°
Reaches altitude 10° 08:38:44 10° 76° (ENE) 1,993 ? -29.2°
Maximum altitude 08:39:58 11° 60° (ENE) 1,927 ? -29.1°
Drops below altitude 10° 08:41:14 10° 43° (NE) 2,010 ? -28.9°
Sets 08:45:04 0° 9° (N) 2,948 ? -28.3°
